BEIDOU 6

Satellite information

Favourite Embed

Satellite Type and Status

PAYLOADIN ORBIT

Key statistics

Satellite BEIDOU 6 at a glance.

Uptime

5523

Days in orbit

Revolutions

≈ 1.0

Per day

Orbit

GEO

Geostationary Orbit

Inclination

3.2

Latest

Satellite identification and parameters

Extended collection of information and parameters for BEIDOU 6.

Object identification

Identified? True

Debris? False

Object name: BEIDOU 6

International designator: 2010-057A

Object number (NORAD): 37210

Object ID (CCSDS): 37210

Country: PEOPLES REPUBLIC OF CHINA (PRC)

Current information (Y/N): Y

RCS size: LARGE

Orbital parameters

Period: 1436.098 minutes

Inclination: 3.187 deg

SMA: 42164.763 km

Apoapsis: 35832.096 km

Periapsis: 35741.159 km

RAAN: 69.937 deg

Eccentricy: 0.00107835

Argument of periapsis: 191.3943 deg

Mean anomaly: 194.4276 deg

Mean motion: 1.00271675 rev/day

Mean motion (dot): -0.00000097 rev/day2

B* drag term: 0.0 1/REarth

Two-line elements (TLE)

Creation date: Dec. 14, 2025, 3:07 a.m.

Reference frame: TEME

Reference center: EARTH

Epoch: Dec. 13, 2025, 2:12 p.m. UTC

TLE line 0: 0 BEIDOU 6

TLE line 1: 1 37210U 10057A 25347.59211675 -.00000097 00000-0 00000-0 0 9990

TLE line 2: 2 37210 3.1870 69.9370 0010784 191.3943 194.4276 1.00271675 55437

Live tracking on map

Real-time ground track for satellite BEIDOU 6.

In-orbit conjunctions

There are no conjunctions computed for BEIDOU 6, at the moment. Check back to stay up to date, as we update our databases every day.

Go to all conjunctions

Associated space launch

BEIDOU 6 was lifted into orbit during the mission ‘Long March 3C | Compass-G4’, on board a Long March 3 space rocket.

The launch took place on Oct. 31, 2010, 4:26 p.m. from Launch Complex 2 (LC-2).

For more information about the launch, click the button.

Launch to space Long March 3C | Compass-G4
Long March 3C | Compass-G4

Agency: N/A

Status: Launch Successful

Launch date: Oct. 31, 2010, 4:26 p.m. UTC

Rocket: Long March 3

Launch pad: Launch Complex 2 (LC-2)

Location: Xichang Satellite Launch Center, People's Republic of China

...

Latest news about this satellite

There are no fresh news available about this satellite. Check back as we update our databases every day.


Newsletter sign-up

Weekly statistics, charts and insights to help you stay on top of the space industry.